Location: Little Italy
(37.8008°N, 122.4108°W)
Time: 20:57:18
(UTC+00:00)

SL-19 R/B - Pass Details

Date: 29 October 2020
Orbit: 358 x 808 km, 99.4° (Epoch: 24 November)

Event Time Altitude Azimuth Distance (km) Brightness Sun altitude
Rises 13:34:41 0° 2° (N) 2,196 7.3 -12.0°
Reaches altitude 10° 13:36:43 10° 350° (N) 1,356 6.1 -11.6°
Maximum altitude 13:39:13 28° 288° (WNW) 740 4.4 -11.1°
Drops below altitude 10° 13:41:49 10° 227° (SW) 1,422 6.1 -10.6°
Sets 13:44:00 0° 215° (SW) 2,329 7.3 -10.2°
